Minot, ND

8:16 AM CDT on April 28, 2017 (GMT -0500)
Minot International

Weather History for KMOT - October, 2014

Change the Weather History Date:

Tuesday, October 21, 2014

  Actual Average Record
Temperature  
Mean Temperature 57 °F 42 °F  
Max Temperature 73 °F 53 °F 84 °F (1927)
Min Temperature 41 °F 32 °F 10 °F (1930)
Degree Days  
Heating Degree Days 8 23  
Month to date heating degree days 348 384  
Since 1 July heating degree days 628 704  
Cooling Degree Days 0 0  
Month to date cooling degree days 0 0  
Year to date cooling degree days 341 444  
Growing Degree Days 9 (Base 50)    
Moisture  
Dew Point 39 °F    
Average Humidity 52    
Maximum Humidity 70    
Minimum Humidity 33    
Precipitation  
Precipitation 0.00 in 0.03 in 0.53 in (2008)
Month to date precipitation 0.27 0.86  
Year to date precipitation 15.76 15.76  
Sea Level Pressure  
Sea Level Pressure 29.73 in    
Wind  
Wind Speed 11 mph (ESE)    
Max Wind Speed 28 mph    
Max Gust Speed 35 mph    
Visibility 10 miles    
Events      
T = Trace of Precipitation, MM = Missing Value Source: NWS Daily Summary

Daily Weather History Graph

Daily Weather History Graph

Search for Another Location

Airport or City:

Trip Planner

Search our weather history database for the weather conditions in past years. The results will help you decide how hot, cold, wet, or windy it might be!

Date:

Astronomy

Oct. 21, 2014 Rise Set
Actual Time 8:13 AM CDT 6:44 PM CDT
Civil Twilight 7:41 AM CDT 7:16 PM CDT
Nautical Twilight 7:05 AM CDT 7:52 PM CDT
Astronomical Twilight 6:29 AM CDT 8:28 PM CDT
Moon 5:50 AM CDT (10/21) 5:47 PM CDT (10/21)
Length of Visible Light 11h 34m
Length of Day
10h 31m
Waning Crescent, 5% of the Moon is Illuminated
Oct 21
Waning Crescent
Oct 23
New
Oct 30
First Quarter
Nov 6
Full
Nov 14
Last Quarter

Hourly Weather History & Observations

Time (CDT) Temp. Windchill Dew Point Humidity Pressure Visibility Wind Dir Wind Speed Gust Speed Precip Events Conditions
12:54 AM 46.0 °F 43.1 °F 35.1 °F 66% 29.88 in 10.0 mi ESE 5.8 mph - N/A   Clear
1:54 AM 45.0 °F 40.1 °F 34.0 °F 65% 29.87 in 10.0 mi East 9.2 mph - N/A   Clear
2:54 AM 45.0 °F 41.8 °F 34.0 °F 65% 29.87 in 10.0 mi ESE 5.8 mph - N/A   Clear
3:54 AM 51.1 °F - 34.0 °F 52% 29.85 in 10.0 mi SE 10.4 mph - N/A   Clear
4:54 AM 52.0 °F - 34.0 °F 50% 29.84 in 10.0 mi SE 12.7 mph - N/A   Clear
5:54 AM 46.0 °F 41.9 °F 34.0 °F 63% 29.84 in 10.0 mi East 8.1 mph - N/A   Clear
6:54 AM 48.0 °F - 35.1 °F 61% 29.83 in 10.0 mi ESE 6.9 mph - N/A   Clear
7:54 AM 45.0 °F 41.8 °F 35.1 °F 68% 29.83 in 10.0 mi ESE 5.8 mph - N/A   Clear
8:54 AM 45.0 °F 41.8 °F 36.0 °F 71% 29.83 in 9.0 mi SE 5.8 mph - N/A   Clear
9:54 AM 52.0 °F - 37.9 °F 59% 29.81 in 10.0 mi ESE 6.9 mph - N/A   Clear
10:54 AM 57.9 °F - 37.0 °F 46% 29.79 in 10.0 mi SSE 10.4 mph - N/A   Clear
11:54 AM 61.0 °F - 37.9 °F 42% 29.76 in 10.0 mi SE 12.7 mph - N/A   Clear
12:54 PM 64.9 °F - 39.9 °F 40% 29.73 in 10.0 mi ESE 11.5 mph - N/A   Clear
1:54 PM 66.2 °F - 39.2 °F 37% 29.69 in 10.0 mi SE 12.7 mph - N/A   Clear
2:54 PM 70.0 °F - 41.0 °F 35% 29.67 in 10.0 mi SE 13.8 mph - N/A   Clear
3:54 PM 72.0 °F - 42.1 °F 34% 29.64 in 10.0 mi ESE 16.1 mph - N/A   Clear
4:54 PM 73.0 °F - 42.1 °F 33% 29.63 in 10.0 mi SE 16.1 mph - N/A   Clear
5:54 PM 72.0 °F - 43.0 °F 35% 29.62 in 10.0 mi SE 10.4 mph - N/A   Clear
6:54 PM 63.0 °F - 43.0 °F 48% 29.62 in 10.0 mi East 3.5 mph - N/A   Clear
7:54 PM 60.1 °F - 44.1 °F 55% 29.62 in 10.0 mi ESE 5.8 mph - N/A   Clear
8:54 PM 57.9 °F - 45.0 °F 62% 29.61 in 10.0 mi ESE 8.1 mph - N/A   Clear
9:54 PM 59.0 °F - 46.0 °F 62% 29.60 in 10.0 mi ESE 9.2 mph - N/A   Clear
10:54 PM 66.9 °F - 44.1 °F 44% 29.57 in 10.0 mi SSE 19.6 mph 31.1 mph N/A   Clear
11:54 PM 64.9 °F - 41.0 °F 42% 29.57 in 10.0 mi SSE 20.7 mph 29.9 mph N/A   Clear